Date String (YYYY-MM-DD hh:mm:ss) UTC,Instrument flags,absolute air pressure of the measurement (hPa),sample flow rate (lpm),inlet stack bypass flow (lpm),air temperature of the measurement (°C),ambient temperature measured by the external sensor (°C),aerosol sample conditioner tube jacket temperature (°C),OPC LED temperature (°C),internal box temperature (°C),relative humidity of the measurement (%),span deviation,mass concentration of particles derived from Lorenz-Mie calculation of OPC scattering (μg/m³),mass concentration of particles derived from Lorenz-Mie calculation of OPC scattering (μg/m³),mass concentration of particles derived from Lorenz-Mie calculation of OPC scattering (μg/m³)
DateTimeUTC,F1_M11,P_M11,Q1_M11,Q2_M11,T1_M11,T2_M11,T3_M11,T4_M11,T5_M11,U1_M11,ZSPAN_M11,X0_M11,X2_M11,X1_M11
2024-05-25 22:00:00,SystemResetWarning,0818.8,5.00,000.00,030.9,030.2,000.0,039.2,032.6,012.8,0000.0,0008.74,0002.96,0001.42
2024-05-25 22:01:00,SystemResetWarning,0818.8,5.01,000.00,030.9,030.2,000.0,039.2,032.6,012.5,0000.0,0007.94,0002.96,0001.43
2024-05-25 22:02:00,SystemResetWarning,0818.8,5.00,000.00,031.0,030.2,000.0,039.2,032.6,012.6,0000.0,0007.68,0002.92,0001.43
2024-05-25 22:03:00,SystemResetWarning,0818.8,4.99,000.00,031.0,030.2,000.0,039.2,032.6,012.7,0000.0,0007.75,0002.99,0001.44
2024-05-25 22:04:00,SystemResetWarning,0818.8,5.00,000.00,031.0,030.2,000.0,039.2,032.6,012.6,0000.0,0008.11,0003.04,0001.44
2024-05-25 22:05:00,SystemResetWarning,0818.8,5.00,000.00,031.0,030.2,000.0,039.2,032.6,012.4,0000.0,0008.28,0003.06,0001.45
2024-05-25 22:06:00,SystemResetWarning,0818.7,5.02,000.00,031.0,030.3,000.0,039.2,032.6,012.4,0000.0,0008.56,0003.13,0001.45
2024-05-25 22:07:00,SystemResetWarning,0818.7,4.99,000.00,031.0,030.3,000.0,039.2,032.6,012.4,0000.0,0008.57,0003.16,0001.45
2024-05-25 22:08:00,SystemResetWarning,0818.6,4.99,000.00,031.0,030.3,000.0,039.3,032.7,011.9,0000.0,0008.07,0003.22,0001.47
2024-05-25 22:09:00,SystemResetWarning,0818.6,4.99,000.00,031.1,030.3,000.0,039.3,032.7,011.6,0000.0,0008.10,0003.21,0001.48
2024-05-25 22:10:00,SystemResetWarning,0818.6,4.99,000.00,031.1,030.3,000.0,039.3,032.7,011.6,0000.0,0008.35,0003.14,0001.45
2024-05-25 22:11:00,SystemResetWarning,0818.6,5.00,000.00,031.1,030.3,000.0,039.3,032.7,011.8,0000.0,0008.34,0003.13,0001.46
2024-05-25 22:12:00,SystemResetWarning,0818.6,5.00,000.00,031.1,030.4,000.0,039.3,032.7,012.0,0000.0,0008.51,0003.12,0001.46
2024-05-25 22:13:00,SystemResetWarning,0818.6,5.00,000.00,031.1,030.4,000.0,039.3,032.8,012.1,0000.0,0008.75,0003.12,0001.45
2024-05-25 22:14:00,SystemResetWarning,0818.7,5.00,000.00,031.1,030.4,000.0,039.3,032.8,011.6,0000.0,0009.60,0003.13,0001.45
2024-05-25 22:15:00,SystemResetWarning,0818.8,5.00,000.00,031.1,030.4,000.0,039.4,032.8,011.7,0000.0,0010.45,0003.11,0001.46
2024-05-25 22:16:00,SystemResetWarning,0818.7,4.99,000.00,031.1,030.4,000.0,039.4,032.8,011.3,0000.0,0010.76,0003.14,0001.47
2024-05-25 22:17:00,SystemResetWarning,0818.8,5.00,000.00,031.1,030.4,000.0,039.4,032.8,011.1,0000.0,0010.57,0003.10,0001.48
2024-05-25 22:18:00,SystemResetWarning,0818.8,5.00,000.00,031.2,030.4,000.0,039.4,032.8,011.1,0000.0,0010.52,0003.07,0001.49
2024-05-25 22:19:00,SystemResetWarning,0818.8,4.99,000.00,031.2,030.4,000.0,039.4,032.8,011.3,0000.0,0010.31,0002.92,0001.47
2024-05-25 22:20:00,SystemResetWarning,0818.8,4.99,000.00,031.2,030.4,000.0,039.4,032.8,011.3,0000.0,0010.14,0002.89,0001.46
2024-05-25 22:21:00,SystemResetWarning,0818.8,5.01,000.00,031.2,030.5,000.0,039.4,032.8,011.1,0000.0,0009.95,0002.89,0001.47
2024-05-25 22:22:00,SystemResetWarning,0818.8,5.02,000.00,031.2,030.5,000.0,039.4,032.8,011.4,0000.0,0009.80,0002.88,0001.48
2024-05-25 22:23:00,SystemResetWarning,0818.8,4.99,000.00,031.2,030.5,000.0,039.4,032.9,011.6,0000.0,0009.68,0002.97,0001.48
2024-05-25 22:24:00,SystemResetWarning,0818.8,5.00,000.00,031.2,030.5,000.0,039.5,032.9,011.7,0000.0,0009.48,0003.01,0001.49
2024-05-25 22:25:00,SystemResetWarning,0818.8,5.00,000.00,031.2,030.5,000.0,039.5,032.9,011.8,0000.0,0008.79,0002.95,0001.47
2024-05-25 22:26:00,SystemResetWarning,0818.8,5.01,000.00,031.2,030.5,000.0,039.5,032.8,012.0,0000.0,0008.32,0003.02,0001.48
2024-05-25 22:27:00,SystemResetWarning,0818.8,5.00,000.00,031.2,030.5,000.0,039.5,032.9,012.0,0000.0,0007.89,0003.01,0001.46
2024-05-25 22:28:00,SystemResetWarning,0818.8,5.01,000.00,031.2,030.5,000.0,039.5,032.9,011.5,0000.0,0007.91,0003.01,0001.44
2024-05-25 22:29:00,SystemResetWarning,0818.8,5.00,000.00,031.3,030.5,000.0,039.5,032.9,012.1,0000.0,0008.08,0003.03,0001.44
2024-05-25 22:30:00,SystemResetWarning,0818.8,5.00,000.00,031.3,030.5,000.0,039.5,032.9,012.4,0000.0,0008.15,0003.06,0001.44
2024-05-25 22:31:00,SystemResetWarning,0818.8,5.00,000.00,031.3,030.5,000.0,039.5,032.9,012.5,0000.0,0008.17,0003.10,0001.45
2024-05-25 22:32:00,SystemResetWarning,0818.8,5.00,000.00,031.2,030.2,000.0,039.5,032.6,013.0,0000.0,0008.18,0003.15,0001.44
2024-05-25 22:33:00,SystemResetWarning,0818.7,4.99,000.00,030.9,027.6,000.0,039.6,031.5,013.4,0000.0,0009.71,0003.19,0001.44
2024-05-25 22:34:00,SystemResetWarning,0818.7,5.02,000.00,030.3,025.8,000.0,039.5,030.5,013.3,0000.0,0010.30,0003.21,0001.45
2024-05-25 22:35:00,SystemResetWarning,0818.7,5.00,000.00,030.1,026.1,000.0,039.4,030.5,014.6,0000.0,0010.60,0003.21,0001.43
2024-05-25 22:36:00,SystemResetWarning,0818.7,5.00,000.00,029.9,026.6,000.0,039.2,030.7,014.9,0000.0,0010.40,0003.21,0001.43
2024-05-25 22:37:00,SystemResetWarning,0818.7,5.01,000.00,029.9,027.1,000.0,039.0,031.0,014.5,0000.0,0009.79,0003.15,0001.41
2024-05-25 22:38:00,SystemResetWarning,0818.8,4.99,000.00,029.9,027.5,000.0,038.9,031.2,014.3,0000.0,0011.21,0003.15,0001.39
2024-05-25 22:39:00,SystemResetWarning,0818.7,5.00,000.00,029.9,027.9,000.0,038.8,031.3,014.1,0000.0,0011.82,0003.18,0001.40
2024-05-25 22:40:00,SystemResetWarning,0818.8,5.00,000.00,029.9,028.2,000.0,038.8,031.4,014.5,0000.0,0011.73,0003.13,0001.39
2024-05-25 22:41:00,SystemResetWarning,0818.8,4.99,000.00,030.0,028.5,000.0,038.7,031.5,015.0,0000.0,0011.96,0003.17,0001.37
2024-05-25 22:42:00,SystemResetWarning,0818.8,5.00,000.00,030.0,028.7,000.0,038.7,031.6,015.1,0000.0,0012.46,0003.20,0001.38
2024-05-25 22:43:00,SystemResetWarning,0818.8,5.02,000.00,030.0,028.9,000.0,038.7,031.6,015.4,0000.0,0013.24,0003.24,0001.38
2024-05-25 22:44:00,SystemResetWarning,0818.8,5.01,000.00,030.1,029.0,000.0,038.6,031.7,015.5,0000.0,0012.00,0003.21,0001.37
2024-05-25 22:45:00,SystemResetWarning,0818.8,4.99,000.00,030.1,029.2,000.0,038.6,031.8,014.7,0000.0,0011.77,0003.16,0001.34
2024-05-25 22:46:00,SystemResetWarning,0818.9,4.99,000.00,030.2,029.3,000.0,038.6,031.9,014.4,0000.0,0012.07,0003.19,0001.33
2024-05-25 22:47:00,SystemResetWarning,0818.8,5.00,000.00,030.2,029.4,000.0,038.6,031.9,014.3,0000.0,0012.20,0003.22,0001.34
2024-05-25 22:48:00,SystemResetWarning,0818.8,5.00,000.00,030.2,029.5,000.0,038.6,032.0,014.7,0000.0,0012.21,0003.24,0001.35
2024-05-25 22:49:00,SystemResetWarning,0818.8,5.00,000.00,030.3,029.6,000.0,038.6,032.0,015.3,0000.0,0010.88,0003.24,0001.35
2024-05-25 22:50:00,SystemResetWarning,0818.8,5.00,000.00,030.3,029.6,000.0,038.6,032.1,014.4,0000.0,0010.88,0003.22,0001.34
2024-05-25 22:51:00,SystemResetWarning,0818.8,5.00,000.00,030.4,029.7,000.0,038.7,032.1,014.0,0000.0,0011.50,0003.24,0001.33
2024-05-25 22:52:00,SystemResetWarning,0818.8,4.99,000.00,030.4,029.7,000.0,038.7,032.1,014.6,0000.0,0011.57,0003.25,0001.32
2024-05-25 22:53:00,SystemResetWarning,0819.1,5.00,000.00,030.5,029.8,000.0,038.7,032.2,014.4,0000.0,0011.32,0003.19,0001.30
2024-05-25 22:54:00,SystemResetWarning,0819.1,5.00,000.00,030.5,029.8,000.0,038.7,032.2,014.0,0000.0,0010.63,0003.08,0001.27
2024-05-25 22:55:00,SystemResetWarning,0818.7,5.00,000.00,030.5,029.9,000.0,038.8,032.3,013.8,0000.0,0010.66,0003.03,0001.26
2024-05-25 22:56:00,SystemResetWarning,0818.8,5.00,000.00,030.6,029.9,000.0,038.8,032.3,013.4,0000.0,0010.44,0003.03,0001.25
2024-05-25 22:57:00,SystemResetWarning,0818.7,5.00,000.00,030.6,030.0,000.0,038.8,032.3,013.0,0000.0,0010.07,0002.96,0001.24
2024-05-25 22:58:00,SystemResetWarning,0818.7,5.01,000.00,030.6,030.0,000.0,038.8,032.4,013.5,0000.0,0010.83,0002.97,0001.21
2024-05-25 22:59:00,SystemResetWarning,0818.6,5.00,000.00,030.6,030.0,000.0,038.9,032.4,012.9,0000.0,0012.09,0003.01,0001.21
